Time,TemperatureF,DewpointF,PressureIn,WindDirection,WindDirectionDegrees,WindSpeedMPH,WindSpeedGustMPH,Humidity,HourlyPrecipIn,Conditions,Clouds,dailyrainin,SoftwareType,DateUTC
2013-05-11 00:00:00,64.4,58.1,29.99,SW,224,1.0,2.0,80,0.00,CLR,,0.00,WeatherDisplay:10.37,2013-05-10 22:00:00,
2013-05-11 00:05:00,64.5,57.8,29.99,SW,226,2.0,4.0,79,0.00,CLR,,0.00,WeatherDisplay:10.37,2013-05-10 22:05:00,
2013-05-11 00:15:00,64.7,58.0,29.99,SW,231,2.0,4.0,79,0.00,CLR,,0.00,WeatherDisplay:10.37,2013-05-10 22:15:00,
2013-05-11 00:21:00,64.7,58.0,29.99,WSW,258,1.0,4.0,79,0.00,CLR,,0.00,WeatherDisplay:10.37,2013-05-10 22:21:00,
2013-05-11 00:25:00,64.6,58.0,29.99,WSW,258,2.0,4.0,79,0.00,CLR,,0.00,WeatherDisplay:10.37,2013-05-10 22:25:00,
2013-05-11 00:31:00,64.7,58.3,29.99,West,263,2.0,4.0,80,0.00,CLR,,0.00,WeatherDisplay:10.37,2013-05-10 22:31:00,
2013-05-11 00:41:00,64.7,58.7,29.99,WSW,258,2.0,3.0,81,0.00,CLR,,0.00,WeatherDisplay:10.37,2013-05-10 22:41:00,
2013-05-11 00:51:00,64.6,58.6,29.99,SW,230,2.0,4.0,81,0.00,CLR,,0.00,WeatherDisplay:10.37,2013-05-10 22:51:00,
2013-05-11 01:01:00,64.4,58.8,29.99,WNW,282,3.0,5.0,82,0.00,CLR,,0.00,WeatherDisplay:10.37,2013-05-10 23:01:00,
2013-05-11 01:11:00,64.4,59.1,29.99,West,276,2.0,5.0,83,0.00,CLR,,0.00,WeatherDisplay:10.37,2013-05-10 23:11:00,
2013-05-11 01:21:00,64.3,59.0,29.99,West,262,2.0,3.0,83,0.00,CLR,,0.00,WeatherDisplay:10.37,2013-05-10 23:21:00,
2013-05-11 01:31:00,64.2,59.3,29.98,West,278,2.0,4.0,84,0.00,CLR,,0.00,WeatherDisplay:10.37,2013-05-10 23:31:00,
2013-05-11 01:41:00,64.1,59.2,29.98,West,281,2.0,4.0,84,0.00,CLR,,0.00,WeatherDisplay:10.37,2013-05-10 23:41:00,
2013-05-11 01:51:00,64.0,59.4,29.98,West,274,1.0,3.0,85,0.00,CLR,,0.00,WeatherDisplay:10.37,2013-05-10 23:51:00,
2013-05-11 02:01:00,64.0,59.1,29.97,SW,229,2.0,3.0,84,0.00,CLR,,0.00,WeatherDisplay:10.37,2013-05-11 00:01:00,
2013-05-11 02:11:00,64.0,59.4,29.97,SW,232,1.0,3.0,85,0.00,CLR,,0.00,WeatherDisplay:10.37,2013-05-11 00:11:00,
2013-05-11 02:21:00,64.0,59.4,29.97,SW,228,1.0,3.0,85,0.00,CLR,,0.00,WeatherDisplay:10.37,2013-05-11 00:21:00,
2013-05-11 02:31:00,64.0,59.4,29.97,SW,214,1.0,3.0,85,0.00,CLR,,0.00,WeatherDisplay:10.37,2013-05-11 00:31:00,
2013-05-11 02:41:00,64.0,59.4,29.97,South,179,1.0,3.0,85,0.00,CLR,,0.00,WeatherDisplay:10.37,2013-05-11 00:41:00,
2013-05-11 02:51:00,64.1,59.5,29.96,SSW,195,1.0,3.0,85,0.00,CLR,,0.00,WeatherDisplay:10.37,2013-05-11 00:51:00,
2013-05-11 03:01:00,64.1,59.8,29.96,SSW,208,2.0,4.0,86,0.00,CLR,,0.00,WeatherDisplay:10.37,2013-05-11 01:01:00,
2013-05-11 03:11:00,64.1,59.8,29.96,SW,215,2.0,5.0,86,0.00,CLR,,0.00,WeatherDisplay:10.37,2013-05-11 01:11:00,
2013-05-11 03:21:00,63.8,59.5,29.95,SW,222,2.0,5.0,86,0.00,CLR,,0.00,WeatherDisplay:10.37,2013-05-11 01:21:00,
2013-05-11 03:31:00,63.7,59.5,29.95,SW,221,5.0,6.0,86,0.00,CLR,,0.00,WeatherDisplay:10.37,2013-05-11 01:31:00,
2013-05-11 03:41:00,63.7,59.8,29.95,SSW,213,3.0,6.0,87,0.00,CLR,,0.00,WeatherDisplay:10.37,2013-05-11 01:41:00,
2013-05-11 03:51:00,63.6,59.7,29.95,SW,220,3.0,5.0,87,0.00,CLR,,0.00,WeatherDisplay:10.37,2013-05-11 01:51:00,
2013-05-11 04:01:00,63.5,59.6,29.95,SW,224,2.0,7.0,87,0.00,CLR,,0.00,WeatherDisplay:10.37,2013-05-11 02:01:00,
2013-05-11 04:11:00,63.5,59.6,29.94,SW,223,3.0,5.0,87,0.00,CLR,,0.00,WeatherDisplay:10.37,2013-05-11 02:11:00,
2013-05-11 04:21:00,63.4,59.5,29.94,SW,223,5.0,6.0,87,0.00,CLR,,0.00,WeatherDisplay:10.37,2013-05-11 02:21:00,
2013-05-11 04:31:00,63.4,59.5,29.94,SW,230,1.0,4.0,87,0.00,CLR,,0.00,WeatherDisplay:10.37,2013-05-11 02:31:00,
2013-05-11 04:41:00,63.4,59.5,29.94,SW,224,3.0,5.0,87,0.00,CLR,,0.00,WeatherDisplay:10.37,2013-05-11 02:41:00,
2013-05-11 04:51:00,63.4,59.5,29.94,SW,220,5.0,6.0,87,0.00,CLR,,0.00,WeatherDisplay:10.37,2013-05-11 02:51:00,
2013-05-11 05:01:00,63.3,59.4,29.94,SW,223,3.0,6.0,87,0.00,CLR,,0.00,WeatherDisplay:10.37,2013-05-11 03:01:00,
2013-05-11 05:11:00,63.2,59.0,29.94,SW,227,3.0,6.0,86,0.00,CLR,,0.00,WeatherDisplay:10.37,2013-05-11 03:11:00,
2013-05-11 05:21:00,63.2,58.9,29.94,SW,231,3.0,5.0,86,0.00,CLR,,0.00,WeatherDisplay:10.37,2013-05-11 03:21:00,
2013-05-11 05:31:00,63.2,59.0,29.94,SW,230,3.0,5.0,86,0.00,CLR,,0.00,WeatherDisplay:10.37,2013-05-11 03:31:00,
2013-05-11 05:41:00,63.3,58.7,29.94,SW,227,2.0,4.0,85,0.00,CLR,,0.00,WeatherDisplay:10.37,2013-05-11 03:41:00,
2013-05-11 05:51:00,63.3,58.7,29.94,SW,228,2.0,3.0,85,0.00,CLR,,0.00,WeatherDisplay:10.37,2013-05-11 03:51:00,
2013-05-11 06:01:00,63.3,58.7,29.94,SW,220,2.0,5.0,85,0.00,CLR,,0.00,WeatherDisplay:10.37,2013-05-11 04:01:00,
2013-05-11 06:02:00,63.3,58.7,29.94,SW,220,2.0,5.0,85,0.00,CLR,,0.00,WeatherDisplay:10.37,2013-05-11 04:02:00,
2013-05-11 06:05:00,63.4,58.8,29.94,SW,220,3.0,5.0,85,0.00,CLR,,0.00,WeatherDisplay:10.37,2013-05-11 04:05:00,
2013-05-11 06:11:00,63.4,58.8,29.93,SW,233,3.0,5.0,85,0.00,CLR,,0.00,WeatherDisplay:10.37,2013-05-11 04:11:00,
2013-05-11 06:12:00,63.4,58.8,29.93,SW,233,3.0,5.0,85,0.00,CLR,,0.00,WeatherDisplay:10.37,2013-05-11 04:12:00,
2013-05-11 06:21:00,63.4,58.8,29.93,SW,229,3.0,5.0,85,0.00,CLR,,0.00,WeatherDisplay:10.37,2013-05-11 04:21:00,
2013-05-11 06:22:00,63.4,58.8,29.93,SW,229,3.0,5.0,85,0.00,CLR,,0.00,WeatherDisplay:10.37,2013-05-11 04:22:00,
2013-05-11 06:31:00,63.4,58.8,29.93,SW,227,3.0,6.0,85,0.00,CLR,,0.00,WeatherDisplay:10.37,2013-05-11 04:31:00,
2013-05-11 06:41:00,63.4,58.8,29.93,SW,231,2.0,5.0,85,0.00,CLR,,0.00,WeatherDisplay:10.37,2013-05-11 04:41:00,
2013-05-11 06:51:00,63.4,58.5,29.93,SW,235,3.0,5.0,84,0.00,CLR,,0.00,WeatherDisplay:10.37,2013-05-11 04:51:00,
2013-05-11 07:01:00,63.5,58.3,29.93,SW,218,2.0,5.0,83,0.00,CLR,,0.00,WeatherDisplay:10.37,2013-05-11 05:01:00,
2013-05-11 07:11:00,63.7,58.5,29.93,SSW,209,3.0,5.0,83,0.00,CLR,,0.00,WeatherDisplay:10.37,2013-05-11 05:11:00,
2013-05-11 07:21:00,64.1,58.8,29.94,SW,215,3.0,6.0,83,0.00,CLR,,0.00,WeatherDisplay:10.37,2013-05-11 05:21:00,
2013-05-11 07:31:00,64.2,58.9,29.94,SW,231,2.0,5.0,83,0.00,CLR,,0.00,WeatherDisplay:10.37,2013-05-11 05:31:00,
2013-05-11 07:41:00,64.1,58.5,29.94,SW,218,3.0,6.0,82,0.00,CLR,,0.00,WeatherDisplay:10.37,2013-05-11 05:41:00,
2013-05-11 07:51:00,64.2,58.9,29.94,SW,227,5.0,7.0,83,0.00,CLR,,0.00,WeatherDisplay:10.37,2013-05-11 05:51:00,
2013-05-11 07:57:00,64.0,58.7,29.94,SW,224,6.0,9.0,83,0.00,CLR,,0.00,WeatherDisplay:10.37,2013-05-11 05:57:00,
2013-05-11 08:05:00,63.9,58.6,29.94,WSW,241,3.0,8.0,83,0.00,CLR,,0.00,WeatherDisplay:10.37,2013-05-11 06:05:00,
2013-05-11 08:11:00,64.1,58.8,29.94,SW,236,3.0,7.0,83,0.00,CLR,,0.00,WeatherDisplay:10.37,2013-05-11 06:11:00,
2013-05-11 08:21:00,64.5,58.9,29.94,SW,224,5.0,8.0,82,0.00,CLR,,0.00,WeatherDisplay:10.37,2013-05-11 06:21:00,
2013-05-11 08:31:00,64.4,58.8,29.94,SW,233,6.0,10.0,82,0.00,CLR,,0.00,WeatherDisplay:10.37,2013-05-11 06:31:00,
2013-05-11 08:41:00,64.5,58.5,29.94,SW,223,6.0,12.0,81,0.00,CLR,,0.00,WeatherDisplay:10.37,2013-05-11 06:41:00,
2013-05-11 08:51:00,65.1,56.9,29.94,WSW,242,5.0,8.0,75,0.00,CLR,,0.00,WeatherDisplay:10.37,2013-05-11 06:51:00,
2013-05-11 09:01:00,65.5,56.6,29.95,SW,228,6.0,10.0,73,0.00,CLR,,0.00,WeatherDisplay:10.37,2013-05-11 07:01:00,
2013-05-11 09:11:00,65.9,57.4,29.95,WSW,239,6.0,10.0,74,0.00,CLR,,0.00,WeatherDisplay:10.37,2013-05-11 07:11:00,
2013-05-11 09:21:00,66.3,58.5,29.95,SW,225,7.0,12.0,76,0.00,CLR,,0.00,WeatherDisplay:10.37,2013-05-11 07:21:00,
2013-05-11 09:31:00,66.4,58.6,29.94,SW,225,3.0,8.0,76,0.00,CLR,,0.00,WeatherDisplay:10.37,2013-05-11 07:31:00,
2013-05-11 09:41:00,67.4,58.0,29.94,SSW,210,5.0,8.0,72,0.00,CLR,,0.00,WeatherDisplay:10.37,2013-05-11 07:41:00,
2013-05-11 09:51:00,67.3,57.6,29.94,South,177,5.0,11.0,71,0.00,CLR,,0.00,WeatherDisplay:10.37,2013-05-11 07:51:00,
2013-05-11 10:01:00,67.0,57.6,29.94,SSW,195,3.0,10.0,72,0.00,CLR,,0.00,WeatherDisplay:10.37,2013-05-11 08:01:00,
2013-05-11 10:11:00,67.3,58.3,29.94,SSW,207,6.0,10.0,73,0.00,CLR,,0.00,WeatherDisplay:10.37,2013-05-11 08:11:00,
2013-05-11 10:21:00,66.5,58.3,29.94,South,181,6.0,12.0,75,0.00,CLR,,0.00,WeatherDisplay:10.37,2013-05-11 08:21:00,
2013-05-11 10:31:00,65.9,58.4,29.94,SSW,205,3.0,10.0,77,0.00,CLR,,0.00,WeatherDisplay:10.37,2013-05-11 08:31:00,
2013-05-11 10:41:00,66.5,59.1,29.94,SSW,203,5.0,12.0,77,0.00,CLR,,0.00,WeatherDisplay:10.37,2013-05-11 08:41:00,
2013-05-11 10:51:00,66.4,58.6,29.94,South,188,7.0,13.0,76,0.00,CLR,,0.00,WeatherDisplay:10.37,2013-05-11 08:51:00,
2013-05-11 11:01:00,66.7,58.5,29.94,SSW,208,6.0,10.0,75,0.00,CLR,,0.00,WeatherDisplay:10.37,2013-05-11 09:01:00,
2013-05-11 11:11:00,66.9,58.7,29.94,SW,229,7.0,12.0,75,0.00,CLR,,0.00,WeatherDisplay:10.37,2013-05-11 09:11:00,
2013-05-11 11:21:00,66.7,58.9,29.94,SSW,195,5.0,10.0,76,0.00,CLR,,0.00,WeatherDisplay:10.37,2013-05-11 09:21:00,
2013-05-11 11:31:00,67.1,59.3,29.94,SSW,193,6.0,10.0,76,0.00,CLR,,0.00,WeatherDisplay:10.37,2013-05-11 09:31:00,
2013-05-11 11:41:00,66.5,59.5,29.94,South,190,3.0,12.0,78,0.00,CLR,,0.00,WeatherDisplay:10.37,2013-05-11 09:41:00,
2013-05-11 11:51:00,66.0,59.3,29.94,SSW,193,5.0,9.0,79,0.00,CLR,,0.00,WeatherDisplay:10.37,2013-05-11 09:51:00,
2013-05-11 12:01:00,66.1,59.4,29.94,SSW,199,6.0,13.0,79,0.00,CLR,,0.00,WeatherDisplay:10.37,2013-05-11 10:01:00,
2013-05-11 12:11:00,66.3,59.6,29.94,SSW,196,2.0,9.0,79,0.00,CLR,,0.00,WeatherDisplay:10.37,2013-05-11 10:11:00,
2013-05-11 12:21:00,66.1,59.0,29.94,SSW,211,5.0,10.0,78,0.00,CLR,,0.00,WeatherDisplay:10.37,2013-05-11 10:21:00,
2013-05-11 12:31:00,65.9,58.5,29.94,SW,215,5.0,12.0,77,0.00,CLR,,0.00,WeatherDisplay:10.37,2013-05-11 10:31:00,
2013-05-11 12:41:00,66.5,59.0,29.94,SW,214,6.0,8.0,77,0.00,CLR,,0.00,WeatherDisplay:10.37,2013-05-11 10:41:00,
2013-05-11 12:51:00,66.7,59.2,29.94,SSW,205,3.0,9.0,77,0.00,CLR,,0.00,WeatherDisplay:10.37,2013-05-11 10:51:00,
2013-05-11 13:01:00,66.7,59.6,29.94,SSW,192,3.0,9.0,78,0.00,CLR,,0.00,WeatherDisplay:10.37,2013-05-11 11:01:00,
2013-05-11 13:11:00,66.1,60.1,29.94,SSW,212,8.0,12.0,81,0.00,CLR,,0.00,WeatherDisplay:10.37,2013-05-11 11:11:00,
2013-05-11 13:21:00,65.7,59.7,29.94,SSW,205,7.0,12.0,81,0.00,CLR,,0.00,WeatherDisplay:10.37,2013-05-11 11:21:00,
2013-05-11 13:31:00,65.8,59.8,29.93,SW,220,7.0,13.0,81,0.00,CLR,,0.00,WeatherDisplay:10.37,2013-05-11 11:31:00,
2013-05-11 13:41:00,65.4,59.8,29.93,SW,230,7.0,12.0,82,0.00,CLR,,0.00,WeatherDisplay:10.37,2013-05-11 11:41:00,
2013-05-11 13:51:00,65.7,60.0,29.93,WSW,248,7.0,10.0,82,0.00,CLR,,0.00,WeatherDisplay:10.37,2013-05-11 11:51:00,
2013-05-11 14:23:00,67.6,59.0,29.92,SW,232,7.0,13.0,74,0.00,CLR,,0.00,WeatherDisplay:10.37,2013-05-11 12:23:00,
2013-05-11 14:32:00,67.4,58.8,29.92,WSW,249,8.0,14.0,74,0.00,CLR,,0.00,WeatherDisplay:10.37,2013-05-11 12:32:00,
2013-05-11 14:42:00,67.3,58.3,29.92,WSW,250,7.0,12.0,73,0.00,CLR,,0.00,WeatherDisplay:10.37,2013-05-11 12:42:00,
2013-05-11 14:51:00,67.7,58.7,29.92,WSW,239,8.0,12.0,73,0.00,CLR,,0.00,WeatherDisplay:10.37,2013-05-11 12:51:00,
2013-05-11 15:01:00,67.1,58.2,29.92,WSW,244,6.0,10.0,73,0.00,CLR,,0.00,WeatherDisplay:10.37,2013-05-11 13:01:00,
2013-05-11 15:11:00,67.0,58.1,29.91,SW,236,8.0,13.0,73,0.00,CLR,,0.00,WeatherDisplay:10.37,2013-05-11 13:11:00,
2013-05-11 15:21:00,67.0,56.8,29.92,West,262,8.0,17.0,70,0.00,CLR,,0.00,WeatherDisplay:10.37,2013-05-11 13:21:00,
2013-05-11 15:30:00,66.8,57.1,29.91,WSW,239,6.0,14.0,71,0.00,CLR,,0.00,WeatherDisplay:10.37,2013-05-11 13:30:00,
2013-05-11 15:40:00,66.8,56.7,29.91,West,266,7.0,14.0,70,0.00,CLR,,0.00,WeatherDisplay:10.37,2013-05-11 13:40:00,
2013-05-11 15:50:00,66.4,55.9,29.91,WSW,248,10.0,17.0,69,0.00,CLR,,0.00,WeatherDisplay:10.37,2013-05-11 13:50:00,
2013-05-11 16:00:00,66.8,55.9,29.91,West,271,8.0,17.0,68,0.00,CLR,,0.00,WeatherDisplay:10.37,2013-05-11 14:00:00,
2013-05-11 16:10:00,66.3,55.0,29.91,SW,236,8.0,15.0,67,0.00,CLR,,0.00,WeatherDisplay:10.37,2013-05-11 14:10:00,
2013-05-11 16:20:00,66.5,55.2,29.91,West,259,7.0,15.0,67,0.00,CLR,,0.00,WeatherDisplay:10.37,2013-05-11 14:20:00,
2013-05-11 16:30:00,67.0,55.2,29.91,West,260,7.0,13.0,66,0.00,CLR,,0.00,WeatherDisplay:10.37,2013-05-11 14:30:00,
2013-05-11 16:40:00,66.9,55.2,29.90,WNW,297,3.0,15.0,66,0.00,CLR,,0.00,WeatherDisplay:10.37,2013-05-11 14:40:00,
2013-05-11 16:50:00,66.6,54.0,29.90,West,281,7.0,18.0,64,0.00,CLR,,0.00,WeatherDisplay:10.37,2013-05-11 14:50:00,
2013-05-11 17:00:00,66.8,54.2,29.90,West,278,8.0,16.0,64,0.00,CLR,,0.00,WeatherDisplay:10.37,2013-05-11 15:00:00,
2013-05-11 17:10:00,66.8,54.3,29.90,WSW,257,10.0,16.0,64,0.00,CLR,,0.00,WeatherDisplay:10.37,2013-05-11 15:10:00,
2013-05-11 17:20:00,65.9,54.2,29.90,West,279,8.0,18.0,66,0.00,CLR,,0.00,WeatherDisplay:10.37,2013-05-11 15:20:00,
2013-05-11 17:30:00,65.7,54.0,29.90,West,271,7.0,16.0,66,0.00,CLR,,0.00,WeatherDisplay:10.37,2013-05-11 15:30:00,
2013-05-11 17:40:00,65.4,53.7,29.90,West,260,7.0,18.0,66,0.00,CLR,,0.00,WeatherDisplay:10.37,2013-05-11 15:40:00,
2013-05-11 17:50:00,65.8,54.1,29.90,West,264,7.0,14.0,66,0.00,CLR,,0.00,WeatherDisplay:10.37,2013-05-11 15:50:00,
2013-05-11 18:00:00,65.4,53.3,29.90,WSW,258,9.0,14.0,65,0.00,CLR,,0.00,WeatherDisplay:10.37,2013-05-11 16:00:00,
2013-05-11 18:10:00,65.2,53.6,29.90,WSW,244,8.0,14.0,66,0.00,CLR,,0.00,WeatherDisplay:10.37,2013-05-11 16:10:00,
2013-05-11 18:20:00,64.3,53.9,29.90,West,271,5.0,16.0,69,0.00,CLR,,0.00,WeatherDisplay:10.37,2013-05-11 16:20:00,
2013-05-11 18:30:00,64.3,53.1,29.90,West,269,5.0,16.0,67,0.00,CLR,,0.00,WeatherDisplay:10.37,2013-05-11 16:30:00,
2013-05-11 18:40:00,64.0,53.6,29.90,West,264,5.0,14.0,69,0.00,CLR,,0.00,WeatherDisplay:10.37,2013-05-11 16:40:00,
2013-05-11 18:50:00,63.6,53.2,29.91,West,281,6.0,14.0,69,0.00,CLR,,0.00,WeatherDisplay:10.37,2013-05-11 16:50:00,
2013-05-11 19:00:00,63.4,52.2,29.91,West,262,6.0,10.0,67,0.00,CLR,,0.00,WeatherDisplay:10.37,2013-05-11 17:00:00,
2013-05-11 19:10:00,63.4,52.2,29.90,West,270,5.0,12.0,67,0.00,CLR,,0.00,WeatherDisplay:10.37,2013-05-11 17:10:00,
2013-05-11 19:20:00,63.1,52.4,29.91,West,264,6.0,13.0,68,0.00,CLR,,0.00,WeatherDisplay:10.37,2013-05-11 17:20:00,
2013-05-11 19:30:00,62.7,51.6,29.91,West,277,6.0,13.0,67,0.00,CLR,,0.00,WeatherDisplay:10.37,2013-05-11 17:30:00,
2013-05-11 19:40:00,62.7,52.4,29.91,West,263,6.0,12.0,69,0.00,CLR,,0.00,WeatherDisplay:10.37,2013-05-11 17:40:00,
2013-05-11 19:50:00,62.5,52.2,29.91,WNW,293,7.0,12.0,69,0.00,CLR,,0.00,WeatherDisplay:10.37,2013-05-11 17:50:00,
2013-05-11 20:00:00,62.5,52.2,29.92,NW,307,3.0,7.0,69,0.00,CLR,,0.00,WeatherDisplay:10.37,2013-05-11 18:00:00,
2013-05-11 20:10:00,62.3,52.0,29.92,WNW,295,6.0,10.0,69,0.00,CLR,,0.00,WeatherDisplay:10.37,2013-05-11 18:10:00,
2013-05-11 20:20:00,61.9,52.4,29.92,WNW,287,2.0,6.0,71,0.00,CLR,,0.00,WeatherDisplay:10.37,2013-05-11 18:20:00,
2013-05-11 20:30:00,61.7,53.0,29.92,West,269,3.0,7.0,73,0.00,CLR,,0.00,WeatherDisplay:10.37,2013-05-11 18:30:00,
2013-05-11 20:40:00,61.6,52.8,29.92,West,276,5.0,12.0,73,0.00,CLR,,0.00,WeatherDisplay:10.37,2013-05-11 18:40:00,
2013-05-11 20:50:00,61.5,53.1,29.93,WNW,283,6.0,10.0,74,0.00,CLR,,0.00,WeatherDisplay:10.37,2013-05-11 18:50:00,
2013-05-11 21:20:00,61.3,53.7,29.93,WNW,292,2.0,8.0,76,0.00,CLR,,0.00,WeatherDisplay:10.37,2013-05-11 19:20:00,
2013-05-11 21:31:00,61.5,53.9,29.93,WNW,296,5.0,8.0,76,0.00,CLR,,0.00,WeatherDisplay:10.37,2013-05-11 19:31:00,
2013-05-11 21:40:00,61.4,54.1,29.94,West,276,3.0,6.0,77,0.00,CLR,,0.00,WeatherDisplay:10.37,2013-05-11 19:40:00,
2013-05-11 21:50:00,61.6,54.3,29.94,West,280,2.0,9.0,77,0.00,CLR,,0.00,WeatherDisplay:10.37,2013-05-11 19:50:00,
2013-05-11 22:00:00,61.6,54.3,29.94,SW,217,2.0,4.0,77,0.00,CLR,,0.00,WeatherDisplay:10.37,2013-05-11 20:00:00,
2013-05-11 22:11:00,61.4,54.5,29.94,WSW,244,2.0,5.0,78,0.00,CLR,,0.00,WeatherDisplay:10.37,2013-05-11 20:11:00,
2013-05-11 22:20:00,61.4,54.5,29.94,West,280,3.0,5.0,78,0.00,CLR,,0.00,WeatherDisplay:10.37,2013-05-11 20:20:00,
2013-05-11 22:30:00,61.5,54.6,29.94,West,259,2.0,5.0,78,0.00,CLR,,0.00,WeatherDisplay:10.37,2013-05-11 20:30:00,
2013-05-11 22:40:00,61.4,54.5,29.94,West,272,5.0,6.0,78,0.00,CLR,,0.00,WeatherDisplay:10.37,2013-05-11 20:40:00,
2013-05-11 22:50:00,61.4,54.8,29.94,West,263,2.0,7.0,79,0.00,CLR,,0.00,WeatherDisplay:10.37,2013-05-11 20:50:00,
2013-05-11 23:00:00,61.6,55.0,29.94,West,279,1.0,3.0,79,0.00,CLR,,0.00,WeatherDisplay:10.37,2013-05-11 21:00:00,
2013-05-11 23:10:00,61.6,55.4,29.94,WNW,287,2.0,6.0,80,0.00,CLR,,0.00,WeatherDisplay:10.37,2013-05-11 21:10:00,
2013-05-11 23:20:00,61.6,55.3,29.94,West,278,3.0,6.0,80,0.00,CLR,,0.00,WeatherDisplay:10.37,2013-05-11 21:20:00,
2013-05-11 23:30:00,61.4,55.1,29.94,West,267,3.0,8.0,80,0.00,CLR,,0.00,WeatherDisplay:10.37,2013-05-11 21:30:00,
2013-05-11 23:40:00,61.3,55.1,29.94,West,276,3.0,8.0,80,0.00,CLR,,0.00,WeatherDisplay:10.37,2013-05-11 21:40:00,
2013-05-11 23:50:00,61.2,55.0,29.94,WNW,288,6.0,10.0,80,0.00,CLR,,0.00,WeatherDisplay:10.37,2013-05-11 21:50:00,